Weather History for PAJC - October, 2012

Change the Weather History Date:

Wednesday, October 31, 2012

  Actual Average Record
Temperature  
Mean Temperature 26 °F -  
Max Temperature 30 °F 40 °F 51 °F (2003)
Min Temperature 21 °F 34 °F 21 °F (2012)
Degree Days  
Heating Degree Days 38    
Moisture  
Dew Point 14 °F    
Average Humidity 59    
Maximum Humidity 80    
Minimum Humidity 40    
Precipitation  
Precipitation 0.00 in - - ()
Sea Level Pressure  
Sea Level Pressure 29.77 in    
Wind  
Wind Speed 11 mph (NW)    
Max Wind Speed 20 mph    
Max Gust Speed 29 mph    
Visibility 9 miles    
Events      
Averages and records for this station are not official NWS values.
T = Trace of Precipitation, MM = Missing Value Source: NWS Daily Summary

Daily Weather History Graph

Daily Weather History Graph

Search for Another Location

Airport or City:

Trip Planner

Search our weather history database for the weather conditions in past years. The results will help you decide how hot, cold, wet, or windy it might be!

Date:

Astronomy

Oct. 31, 2012 Rise Set
Actual Time 9:40 AM AKDT 6:52 PM AKDT
Civil Twilight 9:00 AM AKDT 7:32 PM AKDT
Nautical Twilight 8:16 AM AKDT 8:16 PM AKDT
Astronomical Twilight 7:33 AM AKDT 8:59 PM AKDT
Moon 7:47 PM AKDT (10/31) 11:55 AM AKDT (10/31)
Length of Visible Light 10h 31m
Length of Day
9h 11m
Waning Gibbous, 96% of the Moon is Illuminated
Oct 31
Waning Gibbous
Nov 6
Last Quarter
Nov 13
New
Nov 20
First Quarter
Nov 28
Full

Hourly Weather History & Observations

Time (AKDT) Temp. Windchill Dew Point Humidity Pressure Visibility Wind Dir Wind Speed Gust Speed Precip Events Conditions
12:16 AM 28.4 °F 18.5 °F 19.4 °F 69% 29.97 in 8.0 mi WNW 11.5 mph 17.3 mph N/A   Overcast
12:36 AM 28.4 °F 20.4 °F 19.4 °F 69% 29.96 in 10.0 mi West 8.1 mph - N/A   Overcast
12:56 AM 28.4 °F 19.7 °F 17.6 °F 64% 29.95 in 10.0 mi NW 9.2 mph - N/A   Overcast
1:16 AM 28.4 °F 19.7 °F 17.6 °F 64% 29.94 in 10.0 mi West 9.2 mph - N/A   Overcast
1:36 AM 28.4 °F 18.5 °F 17.6 °F 64% 29.93 in 10.0 mi West 11.5 mph 19.6 mph N/A   Overcast
1:56 AM 28.4 °F 18.5 °F 17.6 °F 64% 29.93 in 9.0 mi WNW 11.5 mph 19.6 mph N/A   Overcast
2:16 AM 28.4 °F 19.1 °F 19.4 °F 69% 29.93 in 7.0 mi NW 10.4 mph - N/A   Overcast
2:36 AM 28.4 °F 20.4 °F 19.4 °F 69% 29.93 in 4.0 mi NNW 8.1 mph - N/A   Overcast
2:56 AM 28.4 °F 19.7 °F 19.4 °F 69% 29.92 in 7.0 mi NNW 9.2 mph - N/A   Mostly Cloudy
3:16 AM 28.4 °F 17.5 °F 17.6 °F 64% 29.91 in 10.0 mi NNW 13.8 mph 18.4 mph N/A   Overcast
3:36 AM 30.2 °F 20.2 °F 17.6 °F 60% 29.91 in 10.0 mi NNW 12.7 mph 21.9 mph N/A   Overcast
3:56 AM 30.2 °F 19.3 °F 15.8 °F 55% 29.90 in 10.0 mi NNW 15.0 mph 19.6 mph N/A   Overcast
4:16 AM 30.2 °F 19.8 °F 14.0 °F 51% 29.90 in 10.0 mi NNW 13.8 mph 19.6 mph N/A   Overcast
4:36 AM 30.2 °F 21.9 °F 12.2 °F 47% 29.89 in 10.0 mi WNW 9.2 mph - N/A   Overcast
4:56 AM 28.4 °F 21.2 °F 12.2 °F 51% 29.89 in 10.0 mi West 6.9 mph - N/A   Overcast
5:16 AM 28.4 °F 18.5 °F 12.2 °F 51% 29.87 in 10.0 mi WNW 11.5 mph 17.3 mph N/A   Overcast
5:36 AM 28.4 °F 18.5 °F 12.2 °F 51% 29.87 in 10.0 mi WNW 11.5 mph 16.1 mph N/A   Overcast
5:56 AM 28.4 °F 19.7 °F 12.2 °F 51% 29.86 in 10.0 mi NW 9.2 mph 16.1 mph N/A   Overcast
6:16 AM 28.4 °F 18.5 °F 12.2 °F 51% 29.86 in 10.0 mi WNW 11.5 mph 24.2 mph N/A   Overcast
6:36 AM 28.4 °F 19.7 °F 12.2 °F 51% 29.85 in 10.0 mi WNW 9.2 mph 19.6 mph N/A   Overcast
6:56 AM 30.2 °F 19.8 °F 12.2 °F 47% 29.84 in 10.0 mi WNW 13.8 mph 20.7 mph N/A   Overcast
7:16 AM 28.4 °F 18.5 °F 12.2 °F 51% 29.84 in 10.0 mi WNW 11.5 mph 19.6 mph N/A   Overcast
7:36 AM 30.2 °F 18.1 °F 12.2 °F 47% 29.83 in 10.0 mi North 18.4 mph - N/A   Overcast
7:56 AM 28.4 °F 18.5 °F 15.8 °F 59% 29.83 in 10.0 mi NNW 11.5 mph - N/A   Overcast
8:16 AM 28.4 °F 19.1 °F 12.2 °F 51% 29.82 in 10.0 mi WNW 10.4 mph 16.1 mph N/A   Overcast
8:36 AM 28.4 °F 19.1 °F 15.8 °F 59% 29.82 in 10.0 mi NNW 10.4 mph 17.3 mph N/A   Mostly Cloudy
8:56 AM 28.4 °F 15.8 °F 15.8 °F 59% 29.81 in 9.0 mi North 18.4 mph 28.8 mph N/A   Overcast
9:16 AM 28.4 °F 15.4 °F 15.8 °F 59% 29.81 in 9.0 mi North 19.6 mph 25.3 mph N/A   Overcast
9:36 AM 28.4 °F 17.0 °F 12.2 °F 51% 29.81 in 10.0 mi NNW 15.0 mph 20.7 mph N/A   Overcast
9:56 AM 28.4 °F 17.5 °F 10.4 °F 47% 29.80 in 10.0 mi NNW 13.8 mph - N/A   Overcast
10:16 AM 28.4 °F 18.0 °F 10.4 °F 47% 29.80 in 10.0 mi NW 12.7 mph 24.2 mph N/A   Overcast
10:36 AM 28.4 °F 17.5 °F 10.4 °F 47% 29.79 in 10.0 mi WNW 13.8 mph 18.4 mph N/A   Overcast
10:56 AM 28.4 °F 16.6 °F 10.4 °F 47% 29.79 in 10.0 mi NW 16.1 mph 25.3 mph N/A   Mostly Cloudy
11:16 AM 28.4 °F 16.6 °F 10.4 °F 47% 29.78 in 10.0 mi NNW 16.1 mph 23.0 mph N/A   Overcast
11:36 AM 28.4 °F 18.0 °F 8.6 °F 43% 29.78 in 10.0 mi WNW 12.7 mph 24.2 mph N/A   Overcast
11:56 AM 30.2 °F 19.8 °F 8.6 °F 40% 29.77 in 10.0 mi WNW 13.8 mph 18.4 mph N/A   Overcast
12:16 PM 30.2 °F 19.3 °F 10.4 °F 44% 29.76 in 10.0 mi NW 15.0 mph 18.4 mph N/A   Overcast
12:36 PM 30.2 °F 20.8 °F 12.2 °F 47% 29.76 in 10.0 mi NW 11.5 mph 18.4 mph N/A   Overcast
12:56 PM 30.2 °F 19.8 °F 10.4 °F 44% 29.75 in 10.0 mi NNW 13.8 mph 21.9 mph N/A   Overcast
1:16 PM 30.2 °F 21.3 °F 10.4 °F 44% 29.75 in 10.0 mi NW 10.4 mph 19.6 mph N/A   Overcast
1:36 PM 28.4 °F 19.1 °F 10.4 °F 47% 29.74 in 10.0 mi WNW 10.4 mph - N/A   Overcast
1:56 PM 28.4 °F 17.5 °F 12.2 °F 51% 29.73 in 10.0 mi NNW 13.8 mph 20.7 mph N/A   Overcast
2:16 PM 28.4 °F 19.1 °F 12.2 °F 51% 29.71 in 10.0 mi West 10.4 mph 16.1 mph N/A   Overcast
2:36 PM 28.4 °F 18.5 °F 15.8 °F 59% 29.71 in 3.0 mi WNW 11.5 mph 21.9 mph N/A   Overcast
2:56 PM 26.6 °F 15.7 °F 19.4 °F 74% 29.70 in 3.0 mi NW 12.7 mph 18.4 mph N/A   Mostly Cloudy
3:16 PM 28.4 °F 20.4 °F 17.6 °F 64% 29.69 in 10.0 mi WNW 8.1 mph - N/A   Overcast
3:36 PM 26.6 °F 17.5 °F 19.4 °F 74% 29.69 in 6.0 mi NNW 9.2 mph 16.1 mph N/A   Overcast
3:56 PM 26.6 °F 16.2 °F 19.4 °F 74% 29.68 in 10.0 mi North 11.5 mph 16.1 mph N/A   Overcast
4:16 PM 26.6 °F 16.8 °F 21.2 °F 80% 29.67 in 3.0 mi North 10.4 mph - N/A   Overcast
4:36 PM 26.6 °F 15.7 °F 21.2 °F 80% 29.66 in 2.5 mi North 12.7 mph - N/A   Overcast
4:56 PM 26.6 °F 21.2 °F 21.2 °F 80% 29.66 in 1.2 mi NNW 4.6 mph - N/A   Overcast
5:16 PM 26.6 °F 19.1 °F 19.4 °F 74% 29.65 in 10.0 mi NW 6.9 mph - N/A   Overcast
5:36 PM 26.6 °F 16.8 °F 15.8 °F 64% 29.64 in 9.0 mi North 10.4 mph - N/A   Mostly Cloudy
5:56 PM 26.6 °F 15.7 °F 21.2 °F 80% 29.64 in 1.5 mi North 12.7 mph 17.3 mph N/A   Overcast
6:16 PM 24.8 °F 14.0 °F 19.4 °F 80% 29.64 in 2.0 mi North 11.5 mph - N/A   Overcast
6:36 PM 24.8 °F 11.9 °F 19.4 °F 80% 29.64 in 2.0 mi North 16.1 mph 20.7 mph N/A   Overcast
6:56 PM 24.8 °F 12.9 °F 15.8 °F 69% 29.65 in 9.0 mi North 13.8 mph - N/A   Overcast
7:16 PM 24.8 °F 16.1 °F 14.0 °F 64% 29.65 in 10.0 mi NNW 8.1 mph 16.1 mph N/A   Mostly Cloudy
7:36 PM 23.0 °F 17.0 °F 15.8 °F 74% 29.65 in 10.0 mi NW 4.6 mph - N/A   Mostly Cloudy
7:56 PM 23.0 °F 15.8 °F 14.0 °F 68% 29.65 in 10.0 mi NNW 5.8 mph - N/A   Mostly Cloudy
8:16 PM 23.0 °F 17.0 °F 12.2 °F 63% 29.64 in 10.0 mi WNW 4.6 mph - N/A   Scattered Clouds
8:36 PM 24.8 °F 17.9 °F 12.2 °F 59% 29.64 in 10.0 mi NW 5.8 mph - N/A   Mostly Cloudy
9:16 PM 24.8 °F 14.6 °F 10.4 °F 54% 29.63 in 10.0 mi NNW 10.4 mph - N/A   Scattered Clouds
9:36 PM 24.8 °F 19.1 °F 10.4 °F 54% 29.63 in 10.0 mi WNW 4.6 mph - N/A   Partly Cloudy
9:56 PM 24.8 °F 16.1 °F 10.4 °F 54% 29.62 in 10.0 mi West 8.1 mph - N/A   Mostly Cloudy
10:16 PM 24.8 °F 17.9 °F 12.2 °F 59% 29.62 in 10.0 mi WNW 5.8 mph - N/A   Overcast
10:36 PM 23.0 °F 13.1 °F 10.4 °F 59% 29.62 in 10.0 mi NNW 9.2 mph - N/A   Mostly Cloudy
10:56 PM 24.8 °F 14.6 °F 8.6 °F 50% 29.61 in 10.0 mi NW 10.4 mph - N/A   Overcast
11:16 PM 23.0 °F 13.9 °F 10.4 °F 59% 29.61 in 10.0 mi West 8.1 mph - N/A   Overcast
11:36 PM 23.0 °F 14.7 °F 10.4 °F 59% 29.61 in 10.0 mi West 6.9 mph - N/A   Mostly Cloudy
11:56 PM 21.2 °F 10.1 °F 10.4 °F 63% 29.61 in 10.0 mi West 10.4 mph - N/A   Scattered Clouds